Flag for Lithuania Weather past 2 weeks in Vilnius, Lithuania

Now
77 °F

Sunny.


Feels Like: 78 °F
Forecast: 54 / 85 °F
Wind: 6 mph from South

Location: Vilnius Airport

Current Time: Jul 3, 2015 at 9:22:48 PM

Latest Report: Jul 3, 2015 at 8:50 PM


Visibility: 10 mi

Pressure: 30.36 "Hg

Humidity: 44%

Dew point: 54 °F

Location of VilniusLocation

Historic Weather in Vilnius — Graph

°F

Vilnius temperature yesterday

Maximum temperature yesterday: 75 °F (at 4:20 PM)
Minimum temperature yesterday: 52 °F (at 4:20 AM)
Average temperature yesterday: 66 °F

Past Weeks' High & Low Weather Summary

 TemperatureHumidityPressure
High84 °F (Jul 3, 6:20 PM)100% (Jun 20, 2:50 AM)30.45 "Hg (Jun 20, 2:50 AM)
Low45 °F (Jun 28, 3:50 AM)29% (Jun 29, 4:50 PM)29.77 "Hg (Jun 19, 3:20 AM)
Average61 °F69%30.01 "Hg
* Reported Jun 18 8:20 PM — Jul 3 8:20 PM, Vilnius, Weather by CustomWeather, © 2015

Note: Actual official high and low records may vary slightly from our data, if they occured in-between our weather recording intervals... More about our weather records

Advertising

Vilnius weather history for previous 24 hours

 ConditionsComfort  
Time TempWeatherWind HumidityBarometerVisibility
8:20 PM
Fri, Jul 3
79 °FSunny.6 mph42%30.36 "Hg10 mi
7:50 PM81 °FSunny.5 mph37%30.36 "Hg10 mi
7:20 PM81 °FSunny.5 mph34%30.39 "Hg10 mi
6:59 PM82 °FSunny.5 mph32%30.39 "Hg10 mi
6:20 PM84 °FSunny.No wind31%30.39 "Hg10 mi
5:50 PM82 °FSunny.2 mph30%30.39 "Hg10 mi
5:20 PM82 °FPassing clouds.5 mph30%30.39 "HgN/A
4:50 PM82 °FSunny.2 mph30%30.42 "Hg10 mi
4:20 PM81 °FSunny.1 mph32%30.42 "Hg10 mi
3:50 PM81 °FPassing clouds.5 mph30%30.42 "HgN/A
3:20 PM81 °FSunny.2 mph32%30.42 "Hg10 mi
2:50 PM81 °FSunny.2 mph30%30.42 "Hg10 mi
2:20 PM81 °FPassing clouds.3 mph30%30.42 "HgN/A
1:50 PM79 °FPassing clouds.6 mph32%30.45 "HgN/A
1:20 PM79 °FSunny.5 mph32%30.45 "Hg10 mi
12:50 PM79 °FPassing clouds.3 mph34%30.45 "HgN/A
12:20 PM77 °FSunny.1 mph32%30.45 "Hg10 mi
11:50 AM77 °FPassing clouds.6 mph34%30.45 "HgN/A
11:20 AM75 °FPassing clouds.5 mph34%30.45 "HgN/A
10:50 AM75 °FPassing clouds.5 mph31%30.45 "HgN/A
10:20 AM75 °FSunny.3 mph31%30.45 "Hg10 mi
9:50 AM73 °FSunny.1 mph38%30.45 "Hg10 mi
9:20 AM72 °FSunny.2 mph41%30.45 "Hg10 mi
8:50 AM70 °FSunny.2 mph46%30.45 "Hg10 mi
8:20 AM70 °FSunny.2 mph46%30.45 "Hg10 mi
7:50 AM68 °FSunny.2 mph56%30.45 "Hg10 mi
7:20 AM66 °FSunny.2 mph60%30.42 "Hg10 mi
6:50 AM63 °FSunny.1 mph68%30.42 "Hg10 mi
6:20 AM61 °FSunny.2 mph68%30.42 "Hg10 mi
5:50 AM57 °FSunny.2 mph77%30.42 "Hg10 mi
5:20 AM55 °FClear.1 mph77%30.42 "Hg10 mi
4:50 AM54 °FClear.1 mph82%30.42 "Hg10 mi
4:20 AM55 °FClear.2 mph82%30.42 "Hg10 mi
3:50 AM55 °FClear.1 mph82%30.42 "Hg10 mi
3:20 AM54 °FClear.No wind82%30.42 "Hg10 mi
2:50 AM55 °FClear.1 mph77%30.42 "Hg10 mi
2:20 AM55 °FClear.2 mph82%30.42 "Hg10 mi
1:50 AM57 °FClear.1 mph77%30.39 "Hg10 mi
1:20 AM55 °FClear.1 mph82%30.39 "Hg10 mi
12:50 AM59 °FClear.1 mph72%30.39 "Hg10 mi
12:20 AM64 °FClear.2 mph60%30.39 "Hg10 mi
11:50 PM
Thu, Jul 2
64 °FClear.2 mph56%30.39 "Hg10 mi
11:20 PM66 °FClear.3 mph52%30.39 "Hg10 mi
10:50 PM66 °FSunny.2 mph52%30.36 "Hg10 mi
10:20 PM66 °FSunny.3 mph52%30.36 "Hg10 mi
9:50 PM66 °FSunny.6 mph52%30.36 "Hg10 mi
9:20 PM70 °FSunny.8 mph46%30.36 "Hg10 mi
Weather by CustomWeather, © 2015

See weather overviewHow to use our weather pages